| time (UTC) | temp F | wind direction | speed MPH | gust MPH | rain 1hr in | rain 24hr in | rain mn in | humidity % | barometer mb |
| 20260502164207 | 59 | 269 | 0.0 | 2.0 | 0.00 | 0.00 | 0.00 | 92 | 1009.3 |
| 20260502163553 | 59 | 269 | 1.0 | 2.0 | 0.00 | 0.00 | 0.00 | 93 | 1009.3 |
| 20260502163032 | 59 | 269 | 0.0 | 2.0 | 0.00 | 0.00 | 0.00 | 93 | 1009.3 |
| 20260502162547 | 59 | 269 | 0.0 | 2.0 | 0.00 | 0.00 | 0.00 | 93 | 1009.2 |
| 20260502162042 | 59 | 265 | 0.0 | 0.0 | 0.00 | 0.00 | 0.00 | 94 | 1009.2 |
| 20260502161541 | 59 | 265 | 0.0 | 0.0 | 0.00 | 0.00 | 0.00 | 94 | 1009.2 |
| 20260502161039 | 58 | 265 | 0.0 | 0.0 | 0.00 | 0.00 | 0.00 | 94 | 1009.3 |
| 20260502160534 | 58 | 265 | 0.0 | 0.0 | 0.00 | 0.00 | 0.00 | 94 | 1009.3 |
| 20260502152042 | 58 | 263 | 0.0 | 0.0 | 0.00 | 0.00 | 0.00 | 94 | 1009.0 |
| 20260502151557 | 57 | 263 | 0.0 | 0.0 | 0.00 | 0.00 | 0.00 | 95 | 1009.0 |
| 20260502151032 | 57 | 263 | 0.0 | 0.0 | 0.00 | 0.00 | 0.00 | 95 | 1009.0 |
| 20260502150546 | 57 | 263 | 0.0 | 0.0 | 0.00 | 0.00 | 0.00 | 94 | 1009.0 |
| 20260502130545 | 57 | 263 | 0.0 | 0.0 | 0.00 | 0.00 | 0.00 | 95 | 1008.2 |
| 20260502123538 | 57 | 263 | 0.0 | 0.0 | 0.00 | 0.00 | 0.00 | 95 | 1008.1 |
| 20260502123035 | 57 | 263 | 0.0 | 0.0 | 0.00 | 0.00 | 0.00 | 95 | 1008.1 |
| 20260502122549 | 57 | 263 | 0.0 | 0.0 | 0.00 | 0.00 | 0.00 | 95 | 1008.0 |
| 20260502122100 | 57 | 263 | 0.0 | 0.0 | 0.00 | 0.00 | 0.00 | 95 | 1008.0 |
| 20260502121549 | 57 | 263 | 0.0 | 0.0 | 0.00 | 0.00 | 0.00 | 95 | 1008.0 |
| 20260502121048 | 56 | 263 | 0.0 | 0.0 | 0.00 | 0.00 | 0.00 | 95 | 1008.0 |
| 20260502120544 | 56 | 263 | 0.0 | 0.0 | 0.00 | 0.00 | 0.00 | 95 | 1008.0 |
| 20260502115555 | 56 | 263 | 0.0 | 0.0 | 0.00 | 0.00 | 0.00 | 94 | 1007.7 |
| 20260502115109 | 57 | 263 | 0.0 | 0.0 | 0.00 | 0.00 | 0.00 | 94 | 1007.7 |
| 20260502114604 | 57 | 263 | 0.0 | 0.0 | 0.00 | 0.00 | 0.00 | 95 | 1007.7 |
| 20260502114038 | 56 | 263 | 0.0 | 0.0 | 0.00 | 0.00 | 0.00 | 94 | 1007.7 |
| 20260502113551 | 56 | 263 | 0.0 | 0.0 | 0.00 | 0.00 | 0.00 | 94 | 1007.7 |
| 20260502113146 | 56 | 263 | 0.0 | 0.0 | 0.00 | 0.00 | 0.00 | 94 | 1007.7 |
| 20260502112549 | 56 | 263 | 0.0 | 0.0 | 0.00 | 0.00 | 0.00 | 94 | 1007.6 |
| 20260502112036 | 56 | 263 | 0.0 | 0.0 | 0.00 | 0.00 | 0.00 | 94 | 1007.6 |
| 20260502111531 | 56 | 263 | 0.0 | 0.0 | 0.00 | 0.00 | 0.00 | 94 | 1007.6 |
| 20260502111044 | 56 | 263 | 0.0 | 0.0 | 0.00 | 0.00 | 0.00 | 94 | 1007.6 |
| 20260502110540 | 56 | 263 | 0.0 | 0.0 | 0.00 | 0.00 | 0.00 | 94 | 1007.6 |
| 20260502110050 | 56 | 263 | 0.0 | 0.0 | 0.00 | 0.00 | 0.00 | 94 | 1007.6 |
| 20260502105548 | 57 | 263 | 0.0 | 0.0 | 0.00 | 0.00 | 0.00 | 94 | 1007.6 |
| 20260502105040 | 57 | 263 | 0.0 | 0.0 | 0.00 | 0.00 | 0.00 | 94 | 1007.6 |
| 20260502104535 | 57 | 263 | 0.0 | 0.0 | 0.00 | 0.00 | 0.00 | 94 | 1007.6 |
| 20260502104051 | 57 | 263 | 0.0 | 0.0 | 0.00 | 0.00 | 0.00 | 94 | 1007.4 |
| 20260502103545 | 56 | 263 | 0.0 | 0.0 | 0.00 | 0.00 | 0.00 | 94 | 1007.4 |
| 20260502103040 | 56 | 263 | 0.0 | 0.0 | 0.00 | 0.00 | 0.00 | 94 | 1007.4 |
| 20260502102539 | 56 | 263 | 0.0 | 0.0 | 0.00 | 0.00 | 0.00 | 94 | 1007.4 |
| 20260502102054 | 56 | 263 | 0.0 | 0.0 | 0.00 | 0.00 | 0.00 | 94 | 1007.4 |
| 20260502101528 | 56 | 263 | 0.0 | 0.0 | 0.00 | 0.00 | 0.00 | 94 | 1007.4 |
| 20260502101047 | 56 | 263 | 0.0 | 0.0 | 0.00 | 0.00 | 0.00 | 94 | 1007.4 |
| 20260502100541 | 56 | 263 | 0.0 | 0.0 | 0.00 | 0.00 | 0.00 | 94 | 1007.4 |
| 20260502100153 | 56 | 263 | 0.0 | 0.0 | 0.00 | 0.00 | 0.00 | 94 | 1007.4 |
| 20260502091533 | 56 | 263 | 0.0 | 0.0 | 0.00 | 0.00 | 0.00 | 94 | 1007.6 |
| 20260502091044 | 56 | 263 | 0.0 | 0.0 | 0.00 | 0.00 | 0.00 | 94 | 1007.7 |
| 20260502090559 | 56 | 263 | 0.0 | 0.0 | 0.00 | 0.00 | 0.00 | 93 | 1007.7 |
| 20260502071146 | 55 | 263 | 0.0 | 0.0 | 0.00 | 0.00 | 0.00 | 92 | 1008.3 |
| 20260502070553 | 55 | 263 | 0.0 | 0.0 | 0.00 | 0.00 | 0.00 | 91 | 1008.3 |
| 20260502070031 | 55 | 263 | 0.0 | 0.0 | 0.00 | 0.00 | 0.00 | 91 | 1008.3 |
| 20260502065547 | 55 | 263 | 0.0 | 0.0 | 0.00 | 0.00 | 0.00 | 91 | 1008.2 |
| 20260502065042 | 55 | 263 | 0.0 | 0.0 | 0.00 | 0.00 | 0.00 | 90 | 1008.2 |
| 20260502064624 | 55 | 263 | 0.0 | 0.0 | 0.00 | 0.00 | 0.00 | 90 | 1008.2 |
| 20260502064044 | 55 | 263 | 0.0 | 0.0 | 0.00 | 0.00 | 0.00 | 90 | 1008.2 |
| 20260502063539 | 55 | 263 | 0.0 | 0.0 | 0.00 | 0.00 | 0.00 | 90 | 1008.2 |
| 20260502063038 | 55 | 263 | 0.0 | 0.0 | 0.00 | 0.00 | 0.00 | 90 | 1008.2 |
| 20260502062553 | 55 | 263 | 0.0 | 0.0 | 0.00 | 0.00 | 0.00 | 90 | 1008.2 |
| 20260502062046 | 56 | 263 | 0.0 | 0.0 | 0.00 | 0.00 | 0.00 | 90 | 1008.2 |
| 20260502061542 | 56 | 263 | 0.0 | 0.0 | 0.00 | 0.00 | 0.00 | 90 | 1008.2 |
| 20260502061037 | 56 | 263 | 0.0 | 0.0 | 0.00 | 0.00 | 0.00 | 89 | 1008.2 |
| 20260502060532 | 56 | 263 | 0.0 | 0.0 | 0.00 | 0.00 | 0.00 | 89 | 1008.2 |
| 20260502060035 | 56 | 263 | 0.0 | 0.0 | 0.00 | 0.00 | 0.00 | 89 | 1008.2 |
| 20260502055551 | 56 | 263 | 0.0 | 0.0 | 0.00 | 0.00 | 0.00 | 89 | 1008.1 |
| 20260502055044 | 57 | 263 | 0.0 | 0.0 | 0.00 | 0.00 | 0.00 | 89 | 1008.1 |
| 20260502054609 | 57 | 263 | 0.0 | 0.0 | 0.00 | 0.00 | 0.00 | 89 | 1008.1 |
| 20260502054037 | 57 | 263 | 0.0 | 0.0 | 0.00 | 0.00 | 0.00 | 89 | 1008.2 |
| 20260502053546 | 57 | 263 | 0.0 | 0.0 | 0.00 | 0.00 | 0.00 | 89 | 1008.2 |
| 20260502053042 | 57 | 263 | 0.0 | 0.0 | 0.00 | 0.00 | 0.00 | 89 | 1008.2 |
| 20260502052541 | 57 | 263 | 0.0 | 0.0 | 0.00 | 0.00 | 0.00 | 89 | 1008.2 |
| 20260502052037 | 57 | 263 | 0.0 | 0.0 | 0.00 | 0.00 | 0.00 | 89 | 1008.2 |
| 20260502051536 | 58 | 263 | 0.0 | 0.0 | 0.00 | 0.00 | 0.00 | 89 | 1008.2 |
| 20260502051030 | 58 | 263 | 0.0 | 0.0 | 0.00 | 0.00 | 0.00 | 89 | 1008.2 |
| 20260502050637 | 58 | 263 | 0.0 | 0.0 | 0.00 | 0.00 | 0.00 | 89 | 1008.2 |
| 20260502050046 | 58 | 263 | 0.0 | 2.0 | 0.00 | 0.00 | 0.00 | 89 | 1008.2 |
| 20260502045540 | 58 | 263 | 0.0 | 3.0 | 0.00 | 0.00 | 0.00 | 89 | 1008.1 |
| 20260502045113 | 58 | 263 | 0.0 | 3.0 | 0.00 | 0.00 | 0.00 | 89 | 1008.1 |
| 20260502044621 | 58 | 217 | 0.0 | 4.0 | 0.00 | 0.00 | 0.00 | 88 | 1008.1 |
| 20260502044034 | 58 | 217 | 0.0 | 4.0 | 0.00 | 0.00 | 0.00 | 88 | 1008.0 |
| 20260502043534 | 58 | 271 | 0.0 | 2.0 | 0.00 | 0.00 | 0.00 | 88 | 1008.0 |
| 20260502043028 | 58 | 266 | 0.0 | 1.0 | 0.00 | 0.00 | 0.00 | 88 | 1008.0 |
| 20260502042544 | 58 | 266 | 0.0 | 0.0 | 0.00 | 0.00 | 0.00 | 88 | 1007.7 |
| 20260502042040 | 58 | 266 | 0.0 | 0.0 | 0.00 | 0.00 | 0.00 | 88 | 1007.7 |
| 20260502041535 | 58 | 266 | 0.0 | 1.0 | 0.00 | 0.00 | 0.00 | 88 | 1007.7 |
| 20260502041031 | 58 | 266 | 0.0 | 1.0 | 0.00 | 0.00 | 0.00 | 88 | 1007.6 |
| 20260502040545 | 59 | 265 | 0.0 | 1.0 | 0.00 | 0.00 | 0.00 | 88 | 1007.6 |
| 20260502040058 | 59 | 265 | 0.0 | 1.0 | 0.00 | 0.00 | 0.00 | 88 | 1007.6 |
| 20260502035532 | 59 | 266 | 0.0 | 0.0 | 0.00 | 0.00 | 0.00 | 88 | 1007.4 |
| 20260502035104 | 59 | 266 | 0.0 | 1.0 | 0.00 | 0.00 | 0.00 | 88 | 1007.4 |
| 20260502034537 | 59 | 266 | 0.0 | 1.0 | 0.00 | 0.00 | 0.00 | 88 | 1007.4 |
| 20260502034110 | 59 | 266 | 0.0 | 0.0 | 0.00 | 0.00 | 0.00 | 88 | 1007.1 |
| 20260502033545 | 59 | 265 | 0.0 | 0.0 | 0.00 | 0.00 | 0.00 | 88 | 1007.1 |
| 20260502033049 | 59 | 265 | 0.0 | 0.0 | 0.00 | 0.00 | 0.00 | 88 | 1007.1 |
| 20260502032555 | 59 | 265 | 0.0 | 0.0 | 0.00 | 0.00 | 0.00 | 88 | 1006.8 |
| 20260502032102 | 59 | 266 | 0.0 | 2.0 | 0.00 | 0.00 | 0.00 | 87 | 1006.8 |
| 20260502031533 | 59 | 267 | 0.0 | 1.0 | 0.00 | 0.00 | 0.00 | 87 | 1006.8 |
| 20260502031024 | 59 | 271 | 0.0 | 6.0 | 0.00 | 0.00 | 0.00 | 87 | 1006.6 |
| 20260502030543 | 59 | 277 | 1.0 | 6.0 | 0.00 | 0.00 | 0.00 | 87 | 1006.6 |
| 20260502030036 | 59 | 288 | 0.0 | 7.0 | 0.00 | 0.00 | 0.00 | 87 | 1006.6 |
| 20260502025534 | 59 | 287 | 2.0 | 9.0 | 0.00 | 0.00 | 0.00 | 87 | 1006.6 |
| 20260502025030 | 59 | 288 | 3.0 | 9.0 | 0.00 | 0.00 | 0.00 | 87 | 1006.6 |
| 20260502024528 | 59 | 196 | 0.0 | 2.0 | 0.00 | 0.00 | 0.00 | 87 | 1006.6 |
| 20260502024044 | 59 | 269 | 0.0 | 7.0 | 0.00 | 0.00 | 0.00 | 87 | 1006.6 |
| 20260502023540 | 59 | 242 | 0.0 | 10.0 | 0.00 | 0.00 | 0.00 | 86 | 1006.6 |
| 20260502023040 | 59 | 291 | 0.0 | 10.0 | 0.00 | 0.00 | 0.00 | 86 | 1006.6 |
| 20260502022534 | 59 | 261 | 0.0 | 10.0 | 0.00 | 0.00 | 0.00 | 86 | 1006.6 |
| 20260502022053 | 59 | 241 | 0.0 | 12.0 | 0.00 | 0.00 | 0.00 | 86 | 1006.6 |
| 20260502021546 | 60 | 278 | 3.0 | 12.0 | 0.00 | 0.00 | 0.00 | 86 | 1006.6 |
| 20260502021039 | 60 | 268 | 2.0 | 10.0 | 0.00 | 0.00 | 0.00 | 86 | 1006.2 |
| 20260502020535 | 60 | 247 | 1.0 | 7.0 | 0.00 | 0.00 | 0.00 | 85 | 1006.2 |
| 20260502020029 | 60 | 234 | 1.0 | 6.0 | 0.00 | 0.00 | 0.00 | 85 | 1006.2 |
| 20260502015527 | 60 | 266 | 1.0 | 7.0 | 0.00 | 0.00 | 0.00 | 84 | 1006.1 |
| 20260502015026 | 60 | 270 | 3.0 | 10.0 | 0.00 | 0.00 | 0.00 | 84 | 1006.1 |
| 20260502014540 | 61 | 264 | 1.0 | 10.0 | 0.00 | 0.00 | 0.00 | 83 | 1006.1 |
| 20260502014037 | 61 | 242 | 1.0 | 10.0 | 0.00 | 0.00 | 0.00 | 82 | 1006.0 |
| 20260502013638 | 61 | 227 | 4.0 | 11.0 | 0.00 | 0.00 | 0.00 | 82 | 1006.0 |
| 20260502013048 | 61 | 245 | 1.0 | 18.0 | 0.00 | 0.00 | 0.00 | 81 | 1006.0 |
| 20260502012524 | 61 | 244 | 4.0 | 18.0 | 0.00 | 0.00 | 0.00 | 80 | 1006.1 |
| 20260502012040 | 62 | 269 | 1.0 | 7.0 | 0.00 | 0.00 | 0.00 | 80 | 1006.1 |
| 20260502011536 | 62 | 259 | 0.0 | 9.0 | 0.00 | 0.00 | 0.00 | 79 | 1006.1 |
| 20260502011108 | 62 | 221 | 1.0 | 9.0 | 0.00 | 0.00 | 0.00 | 79 | 1006.0 |
| 20260502010535 | 62 | 226 | 1.0 | 7.0 | 0.00 | 0.00 | 0.00 | 79 | 1006.0 |
| 20260502010037 | 62 | 258 | 1.0 | 7.0 | 0.00 | 0.00 | 0.00 | 79 | 1006.0 |
| 20260502005552 | 62 | 228 | 1.0 | 9.0 | 0.00 | 0.00 | 0.00 | 79 | 1006.1 |
| 20260502005026 | 62 | 207 | 1.0 | 9.0 | 0.00 | 0.00 | 0.00 | 79 | 1006.1 |
| 20260502004542 | 62 | 222 | 1.0 | 7.0 | 0.00 | 0.00 | 0.00 | 78 | 1006.1 |
| 20260502004120 | 63 | 213 | 2.0 | 10.0 | 0.00 | 0.00 | 0.00 | 77 | 1006.1 |
| 20260502003605 | 64 | 269 | 2.0 | 13.0 | 0.00 | 0.00 | 0.00 | 76 | 1006.1 |
| 20260502003059 | 64 | 253 | 5.0 | 13.0 | 0.00 | 0.00 | 0.00 | 75 | 1006.2 |
| 20260502002533 | 65 | 280 | 1.0 | 11.0 | 0.00 | 0.00 | 0.00 | 73 | 1006.2 |
| 20260502002031 | 65 | 215 | 1.0 | 11.0 | 0.00 | 0.00 | 0.00 | 73 | 1006.2 |
| 20260502001528 | 66 | 209 | 2.0 | 11.0 | 0.00 | 0.00 | 0.00 | 73 | 1006.2 |
| 20260502001026 | 66 | 224 | 0.0 | 12.0 | 0.00 | 0.00 | 0.00 | 73 | 1006.1 |
| 20260502000524 | 67 | 200 | 5.0 | 12.0 | 0.00 | 0.00 | 0.00 | 71 | 1006.1 |
| 20260502000039 | 67 | 281 | 3.0 | 13.0 | 0.00 | 0.00 | 0.00 | 68 | 1006.1 |
| 20260501235558 | 68 | 259 | 5.0 | 13.0 | 0.00 | 0.00 | 0.00 | 66 | 1006.1 |
| 20260501235052 | 68 | 242 | 0.0 | 11.0 | 0.00 | 0.00 | 0.00 | 67 | 1006.1 |
| 20260501234526 | 68 | 279 | 3.0 | 11.0 | 0.00 | 0.00 | 0.00 | 68 | 1006.1 |
| 20260501234041 | 67 | 199 | 1.0 | 6.0 | 0.00 | 0.00 | 0.00 | 67 | 1006.2 |
| 20260501233555 | 67 | 277 | 2.0 | 7.0 | 0.00 | 0.00 | 0.00 | 68 | 1006.2 |
| 20260501233034 | 67 | 286 | 2.0 | 7.0 | 0.00 | 0.00 | 0.00 | 67 | 1006.2 |
| 20260501232530 | 67 | 266 | 1.0 | 12.0 | 0.00 | 0.00 | 0.00 | 67 | 1006.4 |
| 20260501232024 | 67 | 293 | 3.0 | 12.0 | 0.00 | 0.00 | 0.00 | 66 | 1006.4 |
| 20260501231622 | 67 | 281 | 1.0 | 11.0 | 0.00 | 0.00 | 0.00 | 65 | 1006.4 |
| 20260501231025 | 67 | 213 | 3.0 | 10.0 | 0.00 | 0.00 | 0.00 | 64 | 1006.5 |
| 20260501230540 | 68 | 202 | 2.0 | 10.0 | 0.00 | 0.00 | 0.00 | 63 | 1006.5 |
| 20260501230035 | 69 | 213 | 1.0 | 5.0 | 0.00 | 0.00 | 0.00 | 63 | 1006.5 |
| 20260501225528 | 70 | 234 | 2.0 | 5.0 | 0.00 | 0.00 | 0.00 | 60 | 1006.6 |
| 20260501225027 | 70 | 202 | 0.0 | 5.0 | 0.00 | 0.00 | 0.00 | 60 | 1006.6 |
| 20260501224525 | 70 | 284 | 1.0 | 5.0 | 0.00 | 0.00 | 0.00 | 60 | 1006.6 |
| 20260501224039 | 70 | 254 | 0.0 | 4.0 | 0.00 | 0.00 | 0.00 | 61 | 1006.7 |
| 20260501223537 | 70 | 242 | 0.0 | 6.0 | 0.00 | 0.00 | 0.00 | 61 | 1006.7 |
| 20260501223035 | 70 | 275 | 0.0 | 6.0 | 0.00 | 0.00 | 0.00 | 62 | 1006.7 |
| 20260501222529 | 70 | 207 | 0.0 | 4.0 | 0.00 | 0.00 | 0.00 | 61 | 1007.0 |
| 20260501222023 | 70 | 205 | 1.0 | 7.0 | 0.00 | 0.00 | 0.00 | 60 | 1007.0 |
| 20260501221549 | 71 | 102 | 2.0 | 9.0 | 0.00 | 0.00 | 0.00 | 59 | 1007.0 |
| 20260501221041 | 72 | 275 | 3.0 | 9.0 | 0.00 | 0.00 | 0.00 | 58 | 1007.1 |
| 20260501220524 | 72 | 255 | 0.0 | 6.0 | 0.00 | 0.00 | 0.00 | 58 | 1007.1 |
| 20260501220038 | 72 | 268 | 2.0 | 6.0 | 0.00 | 0.00 | 0.00 | 58 | 1007.1 |
| 20260501215536 | 72 | 198 | 0.0 | 4.0 | 0.00 | 0.00 | 0.00 | 57 | 1007.1 |
| 20260501215030 | 72 | 180 | 0.0 | 3.0 | 0.00 | 0.00 | 0.00 | 59 | 1007.1 |
| 20260501214524 | 71 | 176 | 0.0 | 3.0 | 0.00 | 0.00 | 0.00 | 59 | 1007.1 |
| 20260501214038 | 71 | 173 | 0.0 | 3.0 | 0.00 | 0.00 | 0.00 | 59 | 1007.4 |
| 20260501213532 | 70 | 178 | 0.0 | 3.0 | 0.00 | 0.00 | 0.00 | 61 | 1007.4 |
| 20260501213107 | 70 | 179 | 0.0 | 3.0 | 0.00 | 0.00 | 0.00 | 60 | 1007.4 |
| 20260501212537 | 70 | 180 | 0.0 | 0.0 | 0.00 | 0.00 | 0.00 | 62 | 1007.6 |
| 20260501212026 | 69 | 180 | 0.0 | 4.0 | 0.00 | 0.00 | 0.00 | 63 | 1007.6 |
| 20260501211541 | 68 | 180 | 0.0 | 4.0 | 0.00 | 0.00 | 0.00 | 63 | 1007.6 |
| 20260501211036 | 68 | 182 | 1.0 | 4.0 | 0.00 | 0.00 | 0.00 | 64 | 1007.6 |
| 20260501210531 | 68 | 183 | 1.0 | 4.0 | 0.00 | 0.00 | 0.00 | 63 | 1007.6 |
| 20260501210046 | 69 | 184 | 0.0 | 3.0 | 0.00 | 0.00 | 0.00 | 61 | 1007.6 |
| 20260501205540 | 69 | 187 | 0.0 | 5.0 | 0.00 | 0.00 | 0.00 | 64 | 1007.7 |
| 20260501205033 | 68 | 188 | 1.0 | 5.0 | 0.00 | 0.00 | 0.00 | 64 | 1007.7 |
| 20260501204558 | 69 | 191 | 1.0 | 4.0 | 0.00 | 0.00 | 0.00 | 63 | 1007.7 |
| 20260501204040 | 69 | 192 | 0.0 | 5.0 | 0.00 | 0.00 | 0.00 | 63 | 1007.7 |
| 20260501203531 | 69 | 191 | 0.0 | 5.0 | 0.00 | 0.00 | 0.00 | 61 | 1007.7 |
| 20260501203118 | 70 | 194 | 0.0 | 3.0 | 0.00 | 0.00 | 0.00 | 61 | 1007.7 |
| 20260501202527 | 71 | 195 | 0.0 | 5.0 | 0.00 | 0.00 | 0.00 | 59 | 1007.7 |
| 20260501202039 | 71 | 189 | 1.0 | 5.0 | 0.00 | 0.00 | 0.00 | 59 | 1007.7 |
| 20260501201534 | 72 | 201 | 0.0 | 1.0 | 0.00 | 0.00 | 0.00 | 61 | 1007.7 |
| 20260501201032 | 71 | 200 | 0.0 | 3.0 | 0.00 | 0.00 | 0.00 | 59 | 1008.0 |
| 20260501200526 | 71 | 224 | 0.0 | 5.0 | 0.00 | 0.00 | 0.00 | 61 | 1008.0 |
| 20260501200042 | 71 | 155 | 0.0 | 5.0 | 0.00 | 0.00 | 0.00 | 60 | 1008.0 |
| 20260501195536 | 72 | 129 | 0.0 | 1.0 | 0.00 | 0.00 | 0.00 | 59 | 1008.1 |
| 20260501195031 | 73 | 113 | 0.0 | 1.0 | 0.00 | 0.00 | 0.00 | 57 | 1008.1 |
| 20260501194547 | 73 | 84 | 0.0 | 0.0 | 0.00 | 0.00 | 0.00 | 58 | 1008.1 |
| 20260501194025 | 73 | 84 | 0.0 | 0.0 | 0.00 | 0.00 | 0.00 | 56 | 1008.2 |
| 20260501193558 | 73 | 80 | 0.0 | 1.0 | 0.00 | 0.00 | 0.00 | 55 | 1008.2 |
| 20260501193035 | 73 | 81 | 0.0 | 3.0 | 0.00 | 0.00 | 0.00 | 60 | 1008.2 |
| 20260501192611 | 72 | 82 | 0.0 | 3.0 | 0.00 | 0.00 | 0.00 | 61 | 1008.2 |
| 20260501192022 | 73 | 84 | 0.0 | 6.0 | 0.00 | 0.00 | 0.00 | 56 | 1008.2 |
| 20260501191557 | 73 | 84 | 3.0 | 10.0 | 0.00 | 0.00 | 0.00 | 59 | 1008.2 |
| 20260501191031 | 72 | 83 | 1.0 | 10.0 | 0.00 | 0.00 | 0.00 | 60 | 1008.6 |
| 20260501190524 | 71 | 85 | 0.0 | 4.0 | 0.00 | 0.00 | 0.00 | 61 | 1008.6 |
| 20260501190038 | 70 | 74 | 0.0 | 6.0 | 0.00 | 0.00 | 0.00 | 62 | 1008.6 |
| 20260501185532 | 70 | 74 | 2.0 | 6.0 | 0.00 | 0.00 | 0.00 | 64 | 1009.0 |
| 20260501185030 | 69 | 65 | 1.0 | 5.0 | 0.00 | 0.00 | 0.00 | 67 | 1009.0 |
| 20260501184544 | 68 | 65 | 0.0 | 0.0 | 0.00 | 0.00 | 0.00 | 66 | 1009.0 |
| 20260501184141 | 68 | 65 | 0.0 | 0.0 | 0.00 | 0.00 | 0.00 | 65 | 1009.2 |
| 20260501183539 | 68 | 61 | 0.0 | 5.0 | 0.00 | 0.00 | 0.00 | 66 | 1009.2 |
| 20260501183025 | 67 | 78 | 1.0 | 5.0 | 0.00 | 0.00 | 0.00 | 69 | 1009.2 |
| 20260501182521 | 67 | 50 | 0.0 | 4.0 | 0.00 | 0.00 | 0.00 | 67 | 1009.3 |
| 20260501182040 | 66 | 50 | 1.0 | 4.0 | 0.00 | 0.00 | 0.00 | 70 | 1009.3 |
| 20260501181534 | 66 | 42 | 0.0 | 1.0 | 0.00 | 0.00 | 0.00 | 72 | 1009.3 |
| 20260501181033 | 65 | 42 | 0.0 | 1.0 | 0.00 | 0.00 | 0.00 | 71 | 1009.3 |
| 20260501180534 | 65 | 33 | 0.0 | 1.0 | 0.00 | 0.00 | 0.00 | 72 | 1009.3 |
| 20260501180050 | 65 | 22 | 0.0 | 0.0 | 0.00 | 0.00 | 0.00 | 72 | 1009.3 |
| 20260501175524 | 65 | 22 | 0.0 | 1.0 | 0.00 | 0.00 | 0.00 | 73 | 1009.3 |
| 20260501175040 | 65 | 22 | 0.0 | 1.0 | 0.00 | 0.00 | 0.00 | 73 | 1009.3 |
| 20260501174535 | 64 | 12 | 0.0 | 5.0 | 0.00 | 0.00 | 0.00 | 74 | 1009.3 |
| 20260501174107 | 64 | 11 | 1.0 | 5.0 | 0.00 | 0.00 | 0.00 | 75 | 1009.4 |
| 20260501173537 | 64 | 82 | 3.0 | 5.0 | 0.00 | 0.00 | 0.00 | 76 | 1009.4 |
| 20260501173030 | 63 | 80 | 1.0 | 4.0 | 0.00 | 0.00 | 0.00 | 76 | 1009.4 |
| 20260501172529 | 63 | 79 | 0.0 | 4.0 | 0.00 | 0.00 | 0.00 | 76 | 1009.5 |
| 20260501172025 | 63 | 78 | 0.0 | 0.0 | 0.00 | 0.00 | 0.00 | 76 | 1009.5 |
| 20260501171520 | 63 | 78 | 0.0 | 2.0 | 0.00 | 0.00 | 0.00 | 77 | 1009.5 |